Regional Weather Roundup
Issued by NWS

Home | Current Version | Previous Version | Graphics & Text | Print | Product List | Glossary Off
Versions: 1 2 3 4 5 6 7 8 9 10 11 12 13 14 15 16 17 18 19 20 21 22 23 24 25 26 27 28 29 30 31 32 33 34 35 36 37 38 39 40 41 42 43 44 45 46 47 48 49 50

295
ASUS43 KDMX 260001
RWRIA

WEATHER ROUNDUP FOR IOWA
NATIONAL WEATHER SERVICE DES MOINES IA
600 PM CST SUN FEB 25 2018

NOTE: "FAIR" INDICATES FEW OR NO CLOUDS BELOW 12,000 FEET WITH NO
SIGNIFICANT WEATHER AND/OR OBSTRUCTIONS TO VISIBILITY.

* - THESE STATIONS ARE NOT NWS STATIONS...THUS NOT UNDER NWS
QUALITY CONTROL.  THEY ALSO DO NOT REPORT WEATHER SUCH
AS PRECIPITATION OR FOG.

IAZ001>003-012>014-020>022-031>034-043>046-260100-
   NORTHWEST IOWA

CITY           SKY/WX    TMP DP  RH WIND       PRES   REMARKS
CARROLL *      CLEAR     32  27  80 SW8       30.01R WCI  25
CHEROKEE *     CLEAR     29  22  73 SW6       29.99R WCI  23
DENISON *      CLEAR     34  23  64 SW5       30.02R WCI  30
LE MARS *      CLEAR     32  23  69 SE7       29.98R WCI  26
ORANGE CITY *  CLEAR     28  25  86 S6        29.97R WCI  22
SHELDON *      CLEAR     27  21  80 SW8       29.94R WCI  18
SIOUX CITY     CLEAR     28  21  75 SW6       29.99R WCI  22
6HR MIN TEMP:  28; 6HR MAX TEMP:  36;

SPENCER        CLEAR     25  18  74 SW9       29.97R WCI  15
6HR MIN TEMP:  25; 6HR MAX TEMP:  31;

STORM LAKE *   CLEAR     28  21  74 SW9       29.98R WCI  20
$$

IAZ055>058-069>071-079>083-090>094-260100-
   SOUTHWEST IOWA

CITY           SKY/WX    TMP DP  RH WIND       PRES   REMARKS
ATLANTIC *     CLEAR     36  30  80 SW7       30.02R WCI  30
AUDUBON *      CLEAR     36  27  69 CALM      30.02R
CLARINDA *     PTCLDY    39  32  75 S3        30.06R
COUNCIL BLFS * CLEAR     39  32  75 SE5       30.00S
CRESTON *      PTCLDY    37  32  81 W3        30.04R
LAMONI         CLOUDY    39  25  57 SW8       30.04R WCI  33
6HR MIN TEMP:  39; 6HR MAX TEMP:  47;

RED OAK *      CLEAR     39  32  75 S6        30.03S WCI  35
SHENANDOAH *   CLEAR     41  32  70 S5        30.04S
$$

IAZ047>049-059>061-072>074-084-260100-
   CENTRAL IOWA

CITY           SKY/WX    TMP DP  RH WIND       PRES   REMARKS
AMES           CLEAR     36  27  69 W5        30.02S WCI  32
6HR MIN TEMP:  34; 6HR MAX TEMP:  40;

ANKENY *       CLEAR     39  27  60 W6        30.04S WCI  35
BOONE *        CLEAR     36  25  64 W7        30.01S WCI  30
CHARITON *     CLOUDY    41  27  56 SW6       30.04R
DES MOINES     PTCLDY    39  28  64 W8        30.04R WCI  33
6HR MIN TEMP:  38; 6HR MAX TEMP:  44;

GRINNELL*      CLEAR     37  28  67 W5        30.04R WCI  34
KNOXVILLE *    PTCLDY    39  25  56 W9        30.03R WCI  33
MARSHALLTOWN   CLEAR     35  26  69 W6        30.02R WCI  30
6HR MIN TEMP:  35; 6HR MAX TEMP:  39;

NEWTON *       PTCLDY    37  27  65 W8        30.03R WCI  31
PELLA *        PTCLDY    41  25  53 W3        30.05R
$$

IAZ004>006-015-016-023>025-035-036-260100-
   NORTH CENTRAL IOWA

CITY           SKY/WX    TMP DP  RH WIND       PRES   REMARKS
CLARION *      CLEAR     27  27 100 SW8       30.01R WCI  18
ESTHERVILLE    CLEAR     23  17  78 SW14      29.94R WCI  11
6HR MIN TEMP:  23; 6HR MAX TEMP:  28;

FORT DODGE *   CLEAR     31  24  75 SW9       30.01R WCI  23
MASON CITY     CLEAR     28  22  78 SW12      29.99R WCI  18
6HR MIN TEMP:  25; 6HR MAX TEMP:  29;

FOREST CITY *  FAIR      28  23  80 SW8       29.97R WCI  20
WEBSTER CITY * CLEAR     32  23  69 SW13      29.99R WCI  22
IOWA FALLS *   FAIR      33  28  82 SW10      30.02R WCI  25
$$

IAZ007>011-017>019-026>030-037>042-050>054-066-260100-
   NORTHEAST IOWA

CITY           SKY/WX    TMP DP  RH WIND       PRES   REMARKS
CEDAR RAPIDS   FAIR      36  26  67 W7        30.03R WCI  30
6HR MIN TEMP:  36; 6HR MAX TEMP:  44;

CHARLES CITY * FAIR      28  27  93 W10       30.00R WCI  19
CLINTON *      FAIR      36  27  69 W13       30.05R WCI  27
DECORAH *      FAIR      28  23  80 W8G15     29.97R WCI  20
DUBUQUE        FAIR      34  25  69 W14       30.00R WCI  25
6HR MIN TEMP:  34; 6HR MAX TEMP:  39;

MONTICELLO *   FAIR      36  27  69 W8        30.02R WCI  29
OELWEIN *      FAIR      32  32 100 W15       30.01R WCI  22
WATERLOO       FAIR      32  26  78 W6        30.02R WCI  26
6HR MIN TEMP:  31; 6HR MAX TEMP:  36;

$$

IAZ064-065-067-068-078-260100-
   EAST CENTRAL IOWA

CITY           SKY/WX    TMP DP  RH WIND       PRES   REMARKS
DAVENPORT      FAIR      40  27  59 W8        30.06R WCI  34
6HR MIN TEMP:  40; 6HR MAX TEMP:  47;

IOWA CITY      FAIR      39  25  57 W6        30.06R WCI  35
6HR MIN TEMP:  39; 6HR MAX TEMP:  46;

MT. PLEASANT * CLOUDY    41  23  48 W5        30.07R
MUSCATINE *    FAIR      41  27  56 W7        30.06R
QUAD CITIES    FAIR      43  24  47 SW9       30.05R
6HR MIN TEMP:  42; 6HR MAX TEMP:  48;

$$

IAZ062-063-075>077-085>089-095>099-260100-
   SOUTHEAST IOWA

CITY           SKY/WX    TMP DP  RH WIND       PRES   REMARKS
BURLINGTON     CLEAR     42  26  53 SW7       30.06R
6HR MIN TEMP:  42; 6HR MAX TEMP:  48;

FAIRFIELD *    CLOUDY    41  25  52 SW7       30.06R
FORT MADISON * CLEAR     45  27  49 SW7       30.08R
KEOKUK *       CLEAR     43  25  49 SW6       30.07R
OSKALOOSA *    FAIR      37  28  72 SW6       30.05R WCI  32
OTTUMWA        PTCLDY    40  24  53 SW7       30.05R
6HR MIN TEMP:  39; 6HR MAX TEMP:  48;

WASHINGTON *   CLOUDY    41  28  60 W6        30.07R
$$

ABBREVIATIONS USED IN REMARKS
   TC - TEMPERATURES IN CELSIUS
  WCI - WIND CHILL INDEX
   HX - HEAT INDEX
  VSB - VISIBILITY
$$





USA.gov is the U.S. government's official web portal to all federal, state and local government web resources and services.